Portsmouth, NH

4:55 PM EST on February 21, 2017 (GMT -0500)
Pease International Tradeport

Weather History for KPSM - March, 2013

Change the Weather History Date:

Thursday, March 14, 2013

  Actual Average Record
Temperature  
Mean Temperature 30 °F -  
Max Temperature 39 °F 38 °F 71 °F (2007)
Min Temperature 20 °F 23 °F 8 °F (1992)
Degree Days  
Heating Degree Days 36    
Moisture  
Dew Point 15 °F    
Average Humidity 54    
Maximum Humidity 79    
Minimum Humidity 38    
Precipitation  
Precipitation 0.00 in - - ()
Sea Level Pressure  
Sea Level Pressure 29.73 in    
Wind  
Wind Speed 9 mph (West)    
Max Wind Speed 24 mph    
Max Gust Speed 33 mph    
Visibility 10 miles    
Events      
Averages and records for this station are not official NWS values.
T = Trace of Precipitation, MM = Missing Value Source: NWS Daily Summary

Daily Weather History Graph

Daily Weather History Graph

Search for Another Location

Airport or City:

Trip Planner

Search our weather history database for the weather conditions in past years. The results will help you decide how hot, cold, wet, or windy it might be!

Date:

Astronomy

Mar. 14, 2013 Rise Set
Actual Time 6:56 AM EDT 6:48 PM EDT
Civil Twilight 6:28 AM EDT 7:17 PM EDT
Nautical Twilight 5:55 AM EDT 7:50 PM EDT
Astronomical Twilight 5:22 AM EDT 8:23 PM EDT
Moon 8:03 AM EDT (3/14) 10:08 PM EDT (3/14)
Length of Visible Light 12h 48m
Length of Day
11h 51m
Waxing Crescent, 9% of the Moon is Illuminated
Mar 14
Waxing Crescent
Mar 19
First Quarter
Mar 27
Full
Apr 3
Last Quarter
Apr 10
New

Hourly Weather History & Observations

Time (EDT) Temp. Windchill Dew Point Humidity Pressure Visibility Wind Dir Wind Speed Gust Speed Precip Events Conditions
12:55 AM 30.9 °F 24.3 °F 23.0 °F 72% 29.74 in 10.0 mi West 6.9 mph - N/A   Clear
1:55 AM 29.3 °F 23.2 °F 23.5 °F 79% 29.74 in 10.0 mi WSW 5.8 mph - N/A   Partly Cloudy
2:55 AM 29.1 °F 24.1 °F 22.1 °F 75% 29.74 in 10.0 mi WSW 4.6 mph - N/A   Partly Cloudy
3:55 AM 30.2 °F 24.3 °F 20.5 °F 67% 29.73 in 10.0 mi WSW 5.8 mph - N/A   Partly Cloudy
4:55 AM 30.0 °F 24.1 °F 21.2 °F 70% 29.73 in 10.0 mi WSW 5.8 mph - N/A   Partly Cloudy
5:55 AM 29.1 °F 25.4 °F 21.2 °F 72% 29.73 in 10.0 mi West 3.5 mph - N/A   Scattered Clouds
6:55 AM 29.5 °F 25.9 °F 22.5 °F 75% 29.74 in 10.0 mi WSW 3.5 mph - N/A   Mostly Cloudy
7:55 AM 31.3 °F 24.7 °F 22.6 °F 70% 29.75 in 10.0 mi WSW 6.9 mph - N/A   Overcast
8:55 AM 32.5 °F 22.7 °F 18.5 °F 56% 29.75 in 10.0 mi West 13.8 mph - N/A   Overcast
9:55 AM 33.6 °F 25.0 °F 17.2 °F 51% 29.74 in 10.0 mi West 11.5 mph - N/A   Overcast
10:55 AM 34.7 °F 27.5 °F 15.4 °F 45% 29.73 in 10.0 mi West 9.2 mph - N/A   Overcast
11:55 AM 35.8 °F 27.8 °F 14.9 °F 43% 29.71 in 10.0 mi West 11.5 mph - N/A   Overcast
12:55 PM 36.7 °F 29.4 °F 14.7 °F 41% 29.69 in 10.0 mi West 10.4 mph - N/A   Overcast
1:55 PM 38.1 °F 30.2 °F 14.9 °F 39% 29.67 in 10.0 mi WSW 12.7 mph - N/A   Mostly Cloudy
2:55 PM 34.3 °F 23.9 °F 14.4 °F 44% 29.66 in 10.0 mi West 17.3 mph - N/A   Mostly Cloudy
3:55 PM 35.4 °F 26.8 °F 12.2 °F 38% 29.66 in 10.0 mi West 12.7 mph - N/A   Mostly Cloudy
4:55 PM 34.5 °F 25.7 °F 13.1 °F 41% 29.67 in 10.0 mi West 12.7 mph - N/A   Mostly Cloudy
5:55 PM 33.6 °F 23.7 °F 13.5 °F 44% 29.68 in 10.0 mi West 15.0 mph - N/A   Mostly Cloudy
6:55 PM 30.7 °F 19.6 °F 15.6 °F 54% 29.72 in 10.0 mi NW 16.1 mph 24.2 mph N/A   Mostly Cloudy
7:55 PM 27.9 °F 16.8 °F 11.3 °F 50% 29.75 in 10.0 mi WNW 13.8 mph - N/A   Mostly Cloudy
8:55 PM 25.3 °F 11.0 °F 4.8 °F 42% 29.78 in 10.0 mi WNW 20.7 mph 29.9 mph N/A   Mostly Cloudy
9:55 PM 22.8 °F 6.7 °F 1.0 °F 39% 29.79 in 10.0 mi WNW 24.2 mph 33.4 mph N/A   Mostly Cloudy
10:55 PM 21.6 °F 6.1 °F 0.9 °F 41% 29.79 in 10.0 mi WNW 20.7 mph 27.6 mph N/A   Mostly Cloudy
11:55 PM 20.8 °F 6.8 °F 1.4 °F 43% 29.79 in 10.0 mi WNW 16.1 mph 28.8 mph N/A   Mostly Cloudy